STARLINK-34420

Last updated on Thu Jul 03 2025 00:02:07 GMT+0000 (Coordinated Universal Time)

1 64483U 25133M 25183.58335648 -.01165424 00000+0 -57042-2 0 9994 2 64483 53.1553 210.8019 0000842 65.8286 295.7385 15.84006904 2726
UTC large
Height (km)
Speed (km/s)
/
Latitude / Longitude
Inclination (degrees)
Orbital Period (minutes)
Azimuth
Elevation
Range (km)
Doppler Factor

Next 0 passes for location: London (51.5072 / 0.1276)

Sorry there are no passes over London.